Wind_Speed
17 15 14 15 14 16 17 18 18 18 17 17 17 17 17 18 18 20 22 24 24 23 20 19 18 17 17 16 16 16 16 16 17 17 17 17 17 17 18 18 17 16 13 12 12 12 12 11 11 10 9 8 8 8 7 7 6 5 5 5 5 5 5 5 5 6 6 6 6 7 7 7 8 8 9 9 9 10 10 10 11 11 11 11 10
13 12 13 14 13 14 16 17 18 18 17 17 17 17 17 18 18 20 22 23 25 25 23 20 19 18 17 16 16 16 16 17 17 18 18 18 18 17 18 18 17 16 13 11 11 11 11 11 11 10 10 9 9 8 8 7 7 6 6 6 6 6 6 6 6 6 6 7 7 7 8 8 8 9 9 10 10 10 10 10 11 11 11 10 10
12 12 13 12 13 13 14 16 17 18 17 16 16 17 17 18 18 20 22 23 25 25 24 22 20 18 17 17 16 16 17 17 18 18 19 18 18 18 18 18 17 16 14 11 10 11 11 11 11 10 10 10 9 9 9 8 8 7 7 6 6 6 6 6 7 7 7 7 8 8 8 9 9 9 10 10 10 10 10 10 10 11 10 10 10
12 12 12 12 14 14 14 15 16 17 16 16 17 17 18 19 19 20 22 23 25 26 26 24 22 19 18 17 17 16 17 17 18 18 19 19 18 18 18 18 17 16 14 11 10 10 11 11 11 10 10 10 10 9 9 9 9 8 8 8 7 7 7 7 7 8 8 8 8 9 9 9 9 10 10 10 10 11 11 11 11 11 10 10 10
12 11 11 13 15 15 15 15 15 15 15 16 17 18 19 20 20 21 22 23 25 26 27 26 23 20 18 17 17 16 16 17 18 19 19 18 17 17 17 17 17 16 14 11 9 9 10 11 10 10 10 10 10 10 10 10 9 9 8 8 8 8 8 9 9 9 9 9 9 9 9 10 10 10 10 10 11 11 11 11 11 11 10 10 10
11 9 11 14 16 15 14 14 14 14 15 16 18 19 20 21 22 22 22 23 25 27 27 27 25 22 19 17 17 16 16 17 18 19 19 18 17 17 17 17 17 16 14 11 9 8 9 9 9 9 10 10 10 10 10 10 9 9 9 9 9 9 10 10 10 10 10 10 10 10 10 10 10 10 10 11 11 11 11 11 11 11 11 10 10
9 9 12 15 16 15 14 13 13 14 15 16 18 20 22 23 23 23 23 24 25 26 27 27 26 22 19 17 17 16 16 17 18 18 18 18 17 16 16 17 17 16 14 12 9 7 7 8 8 9 9 10 10 10 10 9 9 9 9 9 10 10 11 11 11 12 12 12 11 11 11 11 11 11 11 11 11 11 11 11 12 12 12 11 11
9 10 13 15 15 15 14 14 14 14 15 17 19 22 23 24 25 25 24 24 25 26 27 27 25 22 20 17 16 16 16 17 18 18 18 17 16 16 16 17 16 15 14 12 9 7 7 7 8 8 9 10 10 11 10 10 9 9 10 10 10 11 12 12 12 13 13 12 12 12 12 11 11 11 11 11 12 12 12 12 12 12 13 12 12
9 11 13 14 14 14 14 14 15 16 17 19 21 23 25 25 26 26 26 25 25 25 25 25 24 21 19 17 16 16 16 17 18 18 18 17 16 15 15 16 16 15 13 11 9 7 7 8 8 9 9 10 11 11 11 10 10 10 10 10 11 12 12 12 13 13 13 12 12 12 12 12 12 12 12 12 12 12 12 13 13 13 13 13 13
10 12 13 13 14 14 14 15 16 18 20 21 23 24 26 27 27 28 27 26 25 24 24 24 23 20 19 17 16 16 16 17 18 18 17 16 15 14 15 16 15 14 13 11 9 7 7 8 8 9 10 10 11 11 11 11 10 10 11 11 11 11 11 11 12 13 12 11 11 11 12 12 12 12 13 13 12 13 13 13 14 14 14 14 14
11 11 12 13 14 15 16 17 19 21 23 24 25 26 27 28 28 29 28 26 25 23 23 22 21 19 18 17 15 15 16 17 18 18 17 15 15 14 15 15 14 13 12 11 9 7 7 8 8 9 10 11 11 11 11 11 11 10 11 11 11 11 11 11 12 12 11 11 10 10 11 12 12 13 13 13 12 13 13 14 14 15 15 15 15
10 10 12 13 15 16 17 18 20 23 25 26 27 28 28 29 29 29 28 26 24 22 21 21 20 18 17 16 15 15 15 17 18 18 16 15 14 14 15 15 14 13 12 10 8 8 8 8 9 10 11 11 11 11 11 12 11 10 10 10 11 11 11 11 11 11 11 10 10 11 11 12 12 13 13 12 12 13 14 14 15 15 15 15 15
11 11 13 16 18 18 18 20 22 24 26 27 28 29 29 30 30 29 28 25 23 22 21 20 19 17 16 16 15 14 15 17 18 17 15 14 14 14 14 14 13 12 11 10 9 8 8 9 9 10 11 12 12 11 12 12 12 11 11 10 10 11 11 12 11 11 11 11 11 11 11 12 12 12 13 13 13 13 14 15 16 16 16 16 16
13 14 16 19 20 20 21 23 25 26 26 27 28 29 30 30 30 28 27 24 22 21 20 20 19 17 16 15 14 13 14 16 17 16 15 13 13 13 14 14 13 12 11 10 9 8 9 9 9 10 10 11 11 10 11 12 13 13 13 12 11 11 12 13 12 12 12 12 12 12 12 12 12 13 14 14 15 15 16 16 17 17 17 17 16
15 18 21 22 23 22 23 25 26 26 27 28 28 29 29 29 28 26 25 23 22 21 20 20 18 17 15 14 13 13 14 16 16 15 14 13 13 13 14 14 14 13 12 11 10 9 9 9 9 9 9 9 9 9 10 11 12 13 14 14 12 11 11 12 13 12 12 12 13 13 13 13 13 14 14 15 16 17 17 18 18 18 18 18 18
20 23 25 26 26 24 25 27 27 27 27 28 28 27 27 27 26 25 23 22 21 20 20 19 18 16 15 13 12 11 13 15 15 15 14 13 13 13 14 14 14 13 12 11 10 9 9 9 8 8 7 7 6 7 9 10 10 12 14 15 14 13 11 11 12 13 13 13 14 14 14 14 15 15 15 15 16 17 18 18 19 19 19 19 19
26 27 28 29 28 26 27 28 28 27 28 28 27 27 26 26 25 23 22 21 21 20 19 19 18 16 14 13 11 11 12 14 15 14 14 13 13 13 13 14 14 14 13 12 10 9 9 8 8 7 6 6 5 5 7 9 9 10 12 14 15 15 13 12 12 13 13 13 14 15 15 15 15 15 16 16 16 17 18 18 19 19 19 19 19
29 29 30 31 31 29 29 30 29 27 28 29 28 27 26 25 24 23 21 21 20 20 19 19 18 16 14 12 10 10 11 14 14 14 14 13 13 13 14 14 14 14 13 12 11 10 9 9 8 7 6 5 5 5 6 8 9 9 10 12 14 15 14 14 13 13 13 13 15 15 16 16 16 16 16 17 17 18 18 19 19 19 19 19 19
32 32 32 33 33 32 32 32 30 29 29 29 28 27 26 24 23 22 21 20 20 19 18 19 18 15 14 12 10 9 11 13 14 14 14 14 13 13 14 15 15 15 14 12 11 10 10 9 8 7 6 5 5 5 6 7 8 9 9 10 13 15 16 16 15 15 14 14 14 15 16 16 16 17 17 17 17 18 18 19 19 19 19 19 19
35 35 35 36 35 34 33 33 32 30 30 29 27 26 25 24 22 22 20 20 19 19 18 19 18 15 14 12 9 8 10 12 13 13 14 14 14 14 14 14 15 15 14 13 11 11 11 10 8 7 6 5 5 5 6 7 8 8 9 9 11 14 17 17 17 16 16 15 15 15 15 16 16 17 17 16 17 18 18 19 19 19 19 20 20
37 37 37 36 36 35 34 34 32 30 29 27 25 24 23 23 22 21 19 19 19 19 19 19 18 15 14 11 8 7 9 10 11 12 14 14 14 14 14 14 14 14 14 13 12 12 12 11 9 7 6 5 5 5 6 7 7 8 9 10 10 12 15 17 17 17 16 16 15 15 15 16 16 17 17 17 17 18 19 19 20 20 20 20 21
37 38 37 37 37 37 35 34 32 30 28 26 24 23 22 22 22 21 19 20 20 20 20 19 18 16 14 10 7 7 8 9 9 11 12 13 14 14 14 14 14 14 13 13 13 13 13 12 10 8 6 5 5 5 6 7 8 8 9 10 10 11 14 16 17 17 17 16 15 15 15 16 16 17 17 17 18 18 19 20 20 20 20 20 21
39 38 37 37 38 38 35 33 30 28 27 25 23 22 21 21 21 20 20 20 21 21 20 20 18 15 13 9 6 7 7 7 8 9 11 12 14 14 14 14 13 13 12 13 13 13 13 12 10 9 7 6 6 6 6 7 8 9 10 10 11 11 13 14 16 17 17 17 16 15 15 15 16 16 17 17 18 18 19 19 20 20 20 19 20
40 39 38 38 39 39 35 31 28 27 26 24 23 22 21 20 20 20 20 21 21 21 21 20 18 15 12 8 7 7 6 6 6 8 10 12 13 14 14 13 13 12 12 13 13 13 13 12 11 10 8 7 7 7 8 8 10 11 11 11 11 12 12 14 15 16 16 17 16 16 15 15 16 16 16 17 17 18 18 18 18 19 20 19 19
40 39 38 39 40 39 34 29 26 26 26 25 24 23 21 19 20 20 21 21 22 21 21 20 18 14 11 8 7 7 6 5 6 7 9 10 12 12 13 13 12 12 12 12 13 13 13 12 11 10 10 9 8 8 9 9 11 12 12 12 12 12 13 14 15 15 16 16 16 15 15 15 16 16 16 17 17 17 17 17 17 18 19 20 19
39 39 39 40 40 38 32 27 26 27 27 26 25 24 22 20 20 21 21 22 21 21 21 20 17 13 10 9 8 8 6 5 5 6 8 9 9 10 11 12 12 12 12 12 12 12 12 12 11 11 11 10 10 10 10 11 12 12 13 13 13 13 14 14 15 16 17 17 17 16 15 16 16 17 18 18 18 18 17 17 17 18 18 18 18
38 39 40 40 38 35 31 27 26 27 27 26 26 26 24 21 21 21 21 21 20 20 20 18 15 12 10 9 10 8 7 6 5 6 7 8 8 9 11 12 12 12 12 12 12 12 12 12 12 11 11 11 12 12 12 12 13 13 13 14 14 14 14 15 16 17 18 18 18 18 17 17 17 18 18 19 20 20 19 17 16 16 17 17 16
38 38 38 38 35 32 30 27 26 28 27 26 26 27 26 23 21 22 21 21 20 20 18 16 14 12 10 10 10 9 8 7 6 7 8 8 9 10 11 12 13 13 12 12 11 11 12 12 12 12 12 12 13 13 13 13 13 13 14 14 15 15 15 15 16 17 18 18 18 18 19 19 18 18 18 19 20 21 20 19 16 16 17 16 16
38 37 36 36 33 31 29 27 27 28 27 25 25 26 26 24 23 22 21 21 20 19 16 15 14 12 11 11 11 10 9 8 7 8 9 9 10 10 11 13 14 14 13 12 11 11 12 12 12 12 12 13 13 13 13 13 13 13 14 15 15 16 16 16 16 17 18 18 19 19 19 19 19 18 19 19 20 21 21 20 19 18 18 17 17
37 36 36 36 33 32 29 28 28 29 27 24 23 23 23 22 22 22 21 21 20 17 15 15 14 12 12 12 11 10 10 9 9 9 10 11 11 12 12 13 14 15 14 13 12 12 12 12 11 11 12 12 12 12 12 12 12 13 14 15 15 15 16 16 17 18 18 19 19 19 19 18 18 18 19 19 20 21 21 20 20 19 19 18 17
36 37 37 36 34 32 30 28 28 29 28 25 22 21 20 20 21 20 21 21 18 16 15 15 14 13 13 13 12 11 10 10 10 10 11 12 12 12 13 14 15 15 15 15 14 13 13 12 11 11 11 11 11 12 11 11 12 13 14 15 15 16 16 17 18 18 19 19 19 19 19 18 18 18 19 19 20 20 20 20 20 20 19 18 17
35 36 35 34 33 32 30 28 28 28 28 27 24 22 21 20 19 20 21 20 18 16 16 15 14 14 14 14 13 12 11 10 10 10 11 12 12 13 14 15 15 15 15 16 15 15 14 13 12 11 10 10 10 10 10 11 12 14 15 15 16 16 16 17 18 19 19 20 20 20 19 19 19 18 19 19 20 20 20 20 20 20 19 18 18
32 31 30 29 29 28 28 27 27 27 28 28 25 24 22 20 20 20 20 19 18 16 16 15 14 15 15 15 14 13 12 11 10 11 12 13 13 13 14 14 14 15 15 15 16 16 15 14 12 10 8 8 9 9 10 11 12 14 15 15 15 16 16 17 18 19 20 20 20 20 20 19 19 19 19 19 19 20 20 20 20 20 20 20 19
26 24 24 24 25 25 25 25 25 26 28 27 25 24 23 21 20 20 20 20 18 16 16 14 15 16 16 16 15 14 13 12 12 12 13 13 13 13 12 13 13 14 14 14 16 17 16 14 11 10 9 9 10 11 12 12 13 14 15 15 15 15 16 16 17 19 19 20 20 20 20 20 19 19 19 19 19 20 20 20 19 20 20 21 20
21 20 20 21 22 22 22 21 22 24 26 26 24 24 24 22 20 20 20 20 17 16 15 15 16 16 17 17 16 15 14 12 12 13 14 14 13 12 12 12 13 13 13 16 18 17 15 14 12 12 11 11 11 11 12 13 13 14 14 14 14 15 15 16 17 18 19 20 20 21 21 20 20 20 20 20 20 20 20 20 20 20 20 21 21
19 19 20 20 20 20 20 19 19 20 23 24 23 23 22 21 20 20 21 19 16 15 15 16 16 17 18 18 17 15 14 13 13 14 15 14 12 11 12 13 13 13 15 19 19 16 15 14 13 12 12 11 10 11 12 13 13 13 13 14 14 15 15 16 17 18 18 19 20 21 21 21 20 20 20 20 20 20 21 21 21 21 21 22 22
19 20 20 20 19 18 19 22 22 22 23 23 21 20 20 20 20 21 21 17 14 14 15 16 17 18 19 18 16 15 13 13 14 14 15 14 12 12 12 12 13 14 17 20 18 15 15 14 13 12 12 11 10 10 11 12 12 13 13 14 14 14 15 15 16 17 18 19 20 21 21 21 21 21 20 20 20 21 21 22 22 22 22 22 23
20 20 20 21 18 17 19 24 29 30 29 25 21 19 18 18 20 23 22 17 14 14 15 17 18 19 19 17 16 14 14 14 14 14 15 13 12 11 12 12 13 15 17 18 15 15 15 15 13 12 12 11 10 10 11 12 12 13 13 13 13 13 14 14 16 17 17 19 20 20 21 21 21 21 21 21 21 22 22 23 23 23 23 22 23
20 20 21 21 19 18 20 24 30 33 32 29 23 19 17 17 20 24 24 19 15 14 15 17 18 18 18 17 16 15 15 15 14 15 15 13 12 11 11 12 14 15 15 13 13 14 16 15 14 13 13 12 10 10 10 11 12 12 13 13 13 13 14 14 15 16 17 18 19 20 21 21 22 22 21 21 22 23 24 24 25 25 25 24 23
21 22 23 23 21 22 23 26 30 32 32 28 23 20 17 17 21 24 24 22 18 15 15 16 17 18 18 17 16 15 15 15 15 15 14 12 12 12 12 13 15 15 12 11 11 13 15 15 14 13 13 12 10 9 10 11 12 12 13 13 13 13 14 15 16 17 18 19 20 21 22 22 22 22 22 22 23 23 24 25 25 26 26 26 26
23 24 24 24 22 23 25 27 29 29 29 27 24 22 19 19 22 23 24 24 21 18 16 16 17 18 18 17 16 15 15 15 14 14 13 13 13 13 13 14 15 14 12 12 12 13 14 14 13 13 13 12 11 10 11 12 12 12 13 14 14 14 15 16 18 19 19 20 21 22 23 24 24 23 23 22 23 23 23 24 25 25 26 27 28
24 25 26 25 22 23 24 24 27 28 26 25 23 22 21 20 21 23 25 25 23 19 16 16 17 18 18 17 16 15 15 14 13 13 13 14 15 15 14 14 15 13 11 11 11 12 13 12 12 12 12 12 11 11 12 13 13 13 13 14 16 17 17 18 19 21 22 22 23 24 25 26 25 25 24 23 23 23 23 24 24 24 25 26 27
24 25 26 25 24 23 22 21 26 29 26 23 22 22 23 22 21 24 27 26 23 19 16 16 17 18 18 17 16 16 15 14 13 14 15 16 15 15 14 13 14 12 10 9 10 11 12 12 12 12 12 11 11 12 13 14 14 15 15 15 17 18 20 21 21 22 23 24 24 25 26 26 26 24 23 23 23 23 24 24 24 25 26 27 27
25 25 25 25 24 22 21 20 23 29 28 23 22 23 24 24 23 26 26 23 22 19 16 16 18 18 18 17 16 16 15 14 14 16 16 15 14 13 13 12 12 11 10 10 11 12 13 13 14 13 12 12 12 13 14 15 16 16 17 17 19 20 21 23 24 23 24 25 25 25 26 26 25 24 23 23 23 24 25 25 26 26 27 28 29
25 25 24 24 22 20 20 20 20 24 24 19 19 22 24 24 22 22 21 21 21 19 16 17 17 17 17 17 17 16 15 15 16 16 15 13 13 12 13 12 12 10 10 10 12 13 14 15 15 14 13 13 13 14 15 16 17 17 18 19 20 22 23 25 26 27 27 27 26 25 25 25 25 26 26 26 26 27 28 28 29 29 30 31 31
26 25 23 22 21 18 17 17 16 17 18 16 19 23 25 25 22 21 21 22 23 20 17 17 16 16 16 16 17 16 16 16 15 14 12 12 13 13 13 13 12 11 11 11 12 13 14 15 15 15 15 14 14 15 16 17 18 19 19 20 21 23 24 25 26 27 29 29 28 26 25 26 27 28 29 29 29 30 30 30 31 32 32 33 33
26 24 21 19 18 16 15 15 14 16 19 20 22 23 24 25 24 24 24 24 23 20 17 15 15 16 16 17 18 17 16 15 14 13 12 13 13 14 14 13 13 12 11 12 13 14 15 16 16 16 15 15 15 16 17 18 19 19 20 21 22 23 24 25 25 25 25 27 29 29 29 29 30 30 32 32 32 32 31 32 32 33 34 34 34
24 21 18 16 15 14 14 14 15 19 21 21 21 20 21 23 24 25 24 23 21 18 16 15 15 16 17 19 19 18 16 16 16 15 14 14 15 15 15 14 13 13 12 12 13 14 15 16 16 16 15 15 16 17 18 19 20 21 21 23 24 25 25 25 24 24 22 23 26 29 31 33 34 35 35 35 35 35 33 33 33 34 35 35 35
21 17 15 14 13 13 13 15 16 19 20 19 18 18 19 21 24 24 23 22 21 19 18 16 17 18 19 21 20 18 17 17 17 15 15 14 15 16 16 15 14 13 12 12 12 13 15 16 16 16 16 17 18 18 19 20 21 22 23 25 26 26 26 25 24 24 23 22 22 25 28 31 34 37 38 37 38 38 38 37 36 36 36 36 36
18 15 14 12 11 12 13 14 15 17 18 17 16 17 19 21 24 23 21 22 21 20 19 18 18 19 22 22 21 19 18 18 17 16 15 14 15 16 16 15 13 13 12 12 13 14 15 16 16 17 17 18 19 20 21 22 23 24 25 27 27 27 27 27 26 25 25 24 24 25 27 28 29 32 34 35 35 36 37 38 38 38 38 38 38
16 15 13 11 11 12 12 13 13 14 16 16 15 17 19 22 23 21 21 22 21 21 20 18 19 21 23 22 21 20 19 17 16 15 15 15 16 17 16 14 13 13 13 13 13 14 15 16 17 17 18 19 20 21 22 23 24 25 27 27 28 28 28 28 28 27 27 27 27 27 28 28 29 30 32 33 34 34 35 36 37 38 38 39 39
Wind_Direction
328 327 329 335 336 339 343 347 349 350 351 353 353 355 357 358 3 6 9 11 9 8 5 1 359 357 357 358 359 356 354 353 351 350 350 351 353 355 357 358 1 3 3 3 4 8 9 6 1 358 356 355 355 354 356 358 356 352 349 346 344 338 331 326 319 313 308 303 299 295 293 292 292 292 292 292 292 293 295 296 296 296 294 294 293
326 327 331 336 337 338 341 344 347 349 352 352 352 355 356 358 2 5 8 9 7 7 4 0 356 353 354 357 358 356 354 353 351 350 350 350 351 353 354 356 359 1 1 358 360 5 9 8 4 359 355 353 352 351 351 350 348 343 338 334 331 328 327 324 320 313 306 301 297 295 293 291 291 291 291 291 291 291 292 294 295 294 292 290 288
322 329 336 340 339 339 340 343 345 348 351 353 353 355 356 358 1 4 7 7 5 4 2 359 354 350 352 355 357 356 353 352 350 350 350 350 350 350 351 353 356 359 358 353 354 360 5 8 6 1 356 352 350 348 347 345 342 338 332 326 323 322 322 322 319 313 307 302 299 295 293 292 291 291 290 289 290 290 292 295 297 297 294 291 288
317 328 336 338 338 338 339 341 344 346 351 355 356 355 357 358 0 2 5 4 2 1 360 357 352 349 350 352 355 355 352 350 349 349 350 349 348 348 347 349 353 356 356 351 349 354 359 3 5 2 356 351 348 345 342 339 337 334 330 325 322 320 318 317 314 312 309 306 302 298 295 294 293 292 291 291 291 292 294 297 300 300 297 292 288
317 327 331 333 336 338 338 339 341 345 351 357 357 356 357 359 359 360 2 1 359 359 357 355 351 347 347 349 353 353 351 349 348 349 349 347 346 345 344 345 348 352 354 350 346 349 355 358 1 360 355 351 347 344 340 336 333 329 326 324 323 322 320 318 315 312 310 307 305 303 300 298 297 297 296 294 294 294 295 298 301 301 297 291 285
321 326 325 330 337 339 339 338 340 344 349 353 354 354 354 356 356 357 358 356 355 355 354 352 349 345 344 346 349 351 350 348 348 349 348 345 344 342 340 341 344 348 350 350 346 346 351 354 357 358 356 352 350 346 342 337 332 327 324 326 327 326 324 322 318 314 309 306 305 304 303 301 300 299 297 296 296 295 295 297 299 301 297 289 281
317 317 323 332 337 339 342 341 340 342 344 347 348 348 349 351 352 354 354 352 349 348 349 348 346 343 341 343 346 348 347 347 347 347 346 343 342 339 338 339 341 344 347 349 347 345 346 348 353 357 356 354 352 349 344 339 334 332 330 331 331 330 328 325 320 315 309 304 301 301 302 302 302 301 300 299 298 296 296 297 299 299 296 289 280
301 306 323 333 335 338 341 340 339 338 339 340 340 342 343 345 347 349 349 348 345 342 342 343 342 340 338 340 343 344 344 345 345 346 344 341 340 337 336 337 339 341 344 348 346 342 341 344 351 354 355 354 352 348 343 339 337 335 333 334 334 334 332 329 325 319 311 304 300 299 300 303 305 305 302 301 299 299 299 299 298 298 296 291 283
313 315 326 332 334 336 336 336 335 334 334 334 334 336 338 339 341 343 344 343 340 337 336 336 337 337 336 336 340 341 341 342 344 345 341 339 339 336 334 334 336 338 341 345 343 339 338 342 347 351 353 352 349 345 339 337 336 335 334 334 335 337 336 333 331 326 319 309 302 299 299 303 307 306 302 301 302 303 304 302 300 298 297 294 289
336 332 333 334 335 334 333 334 332 332 331 330 330 330 332 334 335 337 338 338 336 332 330 332 332 332 333 333 337 338 338 340 343 344 340 338 337 335 333 333 334 335 338 341 339 334 335 338 342 346 348 348 345 340 334 331 332 333 332 333 334 338 338 336 336 334 329 320 309 303 302 304 306 305 303 304 307 309 309 307 304 301 300 297 293
337 338 338 336 332 330 331 332 332 331 328 326 325 325 326 328 330 332 332 332 331 328 326 328 327 328 330 331 334 336 336 339 343 344 340 337 336 334 332 332 333 334 336 337 335 330 330 332 334 338 341 341 338 334 329 326 326 328 330 330 332 338 339 338 340 341 337 330 321 313 309 308 308 307 307 309 312 314 313 311 307 304 302 301 298
330 331 330 328 324 323 324 326 328 327 325 322 320 319 321 322 324 326 326 327 326 324 323 324 323 324 327 328 331 334 335 338 343 344 341 337 335 334 332 332 332 333 334 334 332 326 323 324 327 330 332 333 331 329 326 323 322 323 326 329 332 336 338 338 342 344 340 336 330 323 317 312 310 310 311 314 316 315 314 312 309 307 305 303 301
318 315 312 315 315 316 320 322 322 321 320 318 315 314 315 317 318 320 320 321 322 321 321 321 320 320 324 325 328 332 335 338 342 344 342 338 336 334 332 331 331 332 334 333 330 323 319 317 319 322 325 326 325 325 324 324 323 322 324 329 335 336 335 336 342 343 340 338 335 330 324 319 316 313 313 315 316 314 312 310 308 306 305 304 302
304 302 301 306 308 311 316 318 317 315 315 314 312 310 310 311 311 314 315 316 318 318 318 319 316 316 320 322 326 330 334 338 341 342 341 338 337 334 331 330 329 332 335 334 331 324 318 314 313 315 319 322 323 322 323 324 324 322 322 327 335 337 334 332 336 339 337 336 334 329 325 322 318 314 313 313 312 311 309 307 306 305 305 304 303
295 296 297 300 304 307 311 313 312 310 310 310 309 307 306 305 306 308 309 310 313 314 314 315 313 312 316 319 324 329 332 336 338 339 339 338 337 334 330 328 329 332 336 337 334 328 321 316 313 313 316 320 322 321 322 324 323 320 318 322 329 334 333 328 329 332 332 330 329 326 322 319 316 314 312 311 310 309 307 306 305 305 305 305 304
293 295 295 298 302 304 308 309 308 307 307 307 304 303 302 300 301 302 303 305 308 309 310 311 309 309 311 315 321 325 328 333 335 336 336 338 337 333 329 328 328 331 337 339 337 333 327 322 318 316 315 319 321 319 321 322 321 318 315 318 321 326 329 327 325 326 327 325 324 323 321 318 316 315 313 312 311 309 308 307 306 305 305 305 305
291 293 294 297 299 301 306 306 305 305 306 305 300 297 296 295 296 295 297 301 303 304 306 307 305 305 306 310 316 319 325 331 333 333 334 336 335 330 328 326 327 329 334 337 337 335 331 327 323 320 317 318 318 316 319 321 319 316 314 315 317 319 323 326 326 326 326 322 320 319 318 317 317 316 315 314 313 312 310 309 308 307 306 306 305
286 287 291 294 296 299 303 303 302 303 305 304 298 293 292 291 290 291 294 297 298 299 302 302 301 301 300 303 309 313 323 331 332 332 332 333 333 329 326 324 324 326 330 332 333 333 331 328 326 322 319 316 312 309 314 318 319 318 315 314 314 316 320 324 327 329 327 321 317 316 316 317 317 317 317 317 317 316 314 312 311 309 308 306 305
281 283 287 291 294 297 300 300 299 302 304 301 296 292 290 288 287 287 291 293 293 295 297 297 297 296 295 297 303 310 324 332 332 331 331 330 330 328 324 322 322 324 326 328 329 330 329 327 326 322 317 312 304 302 306 313 318 318 316 314 312 314 318 323 327 329 328 323 318 316 317 318 318 318 318 318 318 317 317 316 314 311 309 307 306
279 281 284 288 290 293 297 296 296 299 299 297 294 291 289 286 284 285 288 288 289 290 292 293 293 291 289 293 298 309 326 332 331 330 329 328 327 325 321 319 320 321 323 325 326 327 328 326 326 322 315 307 300 299 302 308 313 316 314 312 311 312 316 322 328 330 329 326 322 321 321 319 319 318 317 317 317 317 317 317 315 313 310 308 308
277 280 282 285 286 289 293 293 294 296 294 293 291 288 285 283 281 283 285 285 285 285 287 289 289 286 286 290 293 307 326 330 330 330 328 326 326 323 319 317 317 319 320 323 323 323 325 325 325 323 318 309 304 303 305 308 310 312 311 311 313 314 316 322 328 331 332 329 326 325 325 324 321 318 317 317 317 318 319 319 316 314 312 310 309
275 277 279 281 283 288 292 291 293 293 291 290 288 285 283 281 281 283 283 282 282 282 284 286 285 283 284 285 287 303 321 326 328 328 326 326 326 323 320 317 316 317 318 320 321 321 322 323 323 323 322 319 315 314 311 311 310 310 311 314 318 320 320 323 328 332 335 336 333 331 331 329 325 322 320 318 318 319 320 319 318 316 313 310 309
272 274 276 279 283 289 292 291 292 293 290 287 285 285 286 285 285 284 282 279 278 280 282 284 283 281 282 280 279 295 311 316 322 325 326 328 329 329 325 319 317 316 315 317 319 319 319 320 321 322 323 322 322 322 319 316 314 314 316 320 323 325 325 326 329 333 337 339 340 338 336 331 327 325 322 318 318 318 319 319 319 319 318 314 310
272 274 277 281 286 290 291 291 292 294 292 287 286 287 287 288 287 282 278 275 275 277 281 282 281 280 278 270 269 283 295 303 315 322 329 334 336 335 329 322 317 314 313 314 316 317 317 316 317 319 319 320 323 324 323 321 321 321 322 326 328 329 330 330 332 334 337 339 340 338 335 330 327 326 322 320 319 318 319 320 319 319 320 321 317
272 276 280 284 288 289 290 289 291 295 293 289 287 287 287 285 281 276 272 270 271 275 279 280 279 277 270 257 260 270 276 288 307 321 331 337 339 336 329 322 317 313 312 312 314 315 316 314 313 315 315 316 320 323 324 327 328 328 327 328 329 330 331 332 335 337 338 339 338 335 332 328 327 327 326 324 323 321 320 322 322 320 320 321 321
273 278 282 285 286 286 286 286 289 292 291 289 288 287 286 281 273 268 264 265 269 274 277 279 278 271 258 248 255 261 263 277 298 314 323 329 333 332 326 321 316 312 309 309 312 313 313 311 309 309 310 313 317 322 326 329 330 329 327 326 327 328 331 334 336 338 339 339 337 333 331 328 327 328 328 328 327 326 326 327 326 325 324 324 323
275 278 281 282 282 283 283 284 287 288 289 290 289 290 289 281 270 263 259 262 268 273 276 278 275 262 246 244 253 256 258 268 283 295 304 312 322 324 321 319 316 310 305 305 307 309 309 307 303 302 303 307 313 317 321 324 325 326 324 322 323 326 331 335 337 338 338 338 336 334 332 330 329 328 329 329 329 332 335 336 332 330 328 326 325
275 277 278 278 278 281 282 283 285 287 289 291 293 295 292 284 271 260 258 263 268 273 277 276 267 252 238 243 252 255 256 261 271 280 289 301 312 316 316 314 310 304 299 300 303 304 304 303 300 297 297 301 305 308 310 313 317 320 321 321 323 326 330 334 336 337 338 338 337 336 335 334 331 329 329 329 330 334 339 340 338 333 328 328 327
273 274 274 274 277 279 280 282 284 285 289 292 295 297 294 287 273 261 259 263 268 273 275 269 257 243 235 243 252 255 257 258 264 274 284 294 304 310 312 310 304 297 294 295 297 298 298 298 297 295 295 296 299 302 304 306 311 316 319 320 322 323 325 329 334 337 339 339 339 339 339 337 333 330 329 329 331 334 339 341 339 337 336 336 333
269 269 270 273 276 277 277 279 280 282 287 290 293 296 295 287 274 263 260 262 268 271 267 259 249 236 234 243 250 253 257 262 267 275 285 293 302 307 307 304 299 294 293 294 294 293 292 292 293 293 294 296 298 301 303 304 307 313 317 319 319 319 322 328 333 336 338 339 339 340 341 341 338 333 330 329 330 332 336 338 338 341 343 344 341
266 266 269 272 275 275 275 276 277 279 284 286 286 289 290 281 270 261 258 262 268 267 260 251 243 234 235 243 249 251 257 266 276 285 291 295 297 298 298 298 297 296 298 299 296 293 290 289 290 292 294 297 299 301 303 306 311 316 319 319 317 318 323 328 332 333 335 337 337 338 341 343 343 339 334 330 328 329 331 333 334 339 342 342 343
266 267 269 272 273 271 270 271 273 276 279 282 282 284 286 278 264 254 254 262 266 262 255 246 238 234 236 242 249 253 258 267 280 287 288 287 286 288 295 299 300 299 298 297 295 293 289 287 287 287 289 293 299 304 308 313 317 319 319 317 316 319 323 327 329 330 332 334 333 335 338 342 343 342 339 333 329 327 327 328 329 332 334 337 339
266 268 271 273 272 268 266 265 269 273 274 277 280 282 283 275 259 249 253 261 261 253 248 243 237 234 237 243 249 256 262 268 275 278 278 276 279 287 296 301 301 296 291 290 290 288 284 281 281 282 286 294 303 311 315 317 318 318 317 316 316 318 320 323 324 325 327 329 329 331 334 337 339 340 339 336 332 329 327 326 326 327 328 331 334
267 272 276 276 273 267 262 262 266 270 269 271 275 278 277 272 257 248 252 258 254 246 243 241 237 234 237 245 251 258 264 269 272 274 274 275 278 287 295 297 296 293 291 294 289 284 283 283 285 291 297 301 307 314 317 318 318 317 316 315 316 316 317 318 319 320 322 323 324 326 328 331 333 335 335 334 332 329 327 325 324 325 326 326 328
271 276 279 280 277 270 260 258 263 264 265 267 271 273 274 270 257 247 251 254 249 243 242 240 236 234 238 246 251 257 264 269 271 273 274 275 279 286 292 293 295 293 296 304 297 285 286 289 292 296 298 300 305 312 317 317 317 317 317 317 317 316 315 314 314 315 317 318 319 320 322 324 326 328 329 329 327 325 324 322 321 322 322 322 323
273 275 278 282 282 275 259 252 255 256 259 265 269 273 276 270 255 246 250 252 249 245 243 240 237 235 238 245 251 256 262 265 267 272 275 277 282 288 292 296 298 293 296 305 298 282 282 287 288 291 292 294 302 310 314 316 318 319 319 319 318 315 312 311 311 313 314 315 315 316 318 319 321 322 323 323 323 322 321 319 318 318 318 317 317
270 272 276 279 282 279 261 249 247 249 256 263 266 269 272 266 251 245 247 248 248 245 242 239 234 234 239 243 249 255 258 261 266 272 275 279 285 290 293 297 295 290 296 304 294 277 278 282 281 284 286 291 298 306 312 315 318 320 321 320 317 314 311 311 312 312 313 314 314 314 315 316 318 319 319 320 320 319 318 316 316 315 314 314 313
269 272 274 276 279 276 264 251 248 250 255 256 257 260 264 260 247 243 245 244 243 243 240 236 233 236 240 242 246 250 253 259 265 270 272 276 281 285 289 291 287 287 294 298 287 273 276 277 276 281 286 290 296 303 311 315 318 319 320 318 315 313 312 312 312 312 312 313 312 312 313 314 315 316 317 318 317 316 315 314 313 311 311 311 310
271 272 272 273 272 268 261 253 249 250 251 248 246 252 256 254 246 243 245 243 237 239 240 239 238 240 241 241 243 244 249 257 263 266 268 271 273 275 279 279 279 284 289 287 273 264 270 275 277 283 287 290 294 303 311 314 316 317 316 314 312 312 312 312 311 310 310 310 309 309 310 311 311 312 314 315 315 315 314 313 312 311 310 310 310
270 270 269 267 265 262 257 253 249 246 247 244 243 248 249 248 246 243 245 243 236 236 240 242 242 242 241 241 241 242 248 255 259 263 264 263 264 266 268 271 277 282 278 272 266 259 265 274 278 283 288 290 294 304 313 314 313 313 312 309 308 309 309 309 307 305 306 306 306 307 307 307 307 309 311 311 311 311 310 310 309 309 309 309 310
268 268 268 265 267 272 265 255 249 247 246 246 245 243 238 239 240 239 242 243 238 232 235 241 241 241 241 241 242 243 247 250 253 256 257 257 259 260 265 270 278 279 269 264 259 253 263 273 278 284 290 293 297 307 314 313 310 307 306 306 305 304 304 303 303 303 304 304 305 305 305 305 306 307 308 307 306 305 305 305 305 306 307 307 307
265 266 267 265 269 281 282 266 254 252 252 252 248 243 237 234 234 238 244 245 240 231 229 236 239 240 241 241 242 243 244 246 247 251 252 254 256 258 265 272 277 275 267 259 247 244 259 269 273 281 286 291 298 307 310 307 303 299 299 301 303 302 302 301 302 304 305 305 304 304 304 304 304 305 306 306 305 304 303 302 302 303 303 302 302
262 263 264 264 265 273 285 282 261 252 253 253 248 246 243 241 241 243 245 245 238 227 223 231 235 238 239 240 241 241 242 242 242 246 248 251 255 261 268 272 276 271 256 247 245 250 259 263 268 275 278 285 294 300 301 298 296 297 298 299 300 300 301 300 301 303 303 303 303 302 302 302 302 303 304 304 304 304 303 302 302 302 301 300 298
260 259 260 263 266 268 276 286 268 250 250 254 250 247 244 243 246 243 241 240 231 219 216 226 232 237 240 241 241 241 240 238 238 242 246 252 258 263 266 266 272 267 247 243 255 261 264 267 271 273 275 283 291 296 296 294 295 297 299 300 300 300 301 301 301 300 301 302 302 301 301 302 303 305 305 304 303 303 301 301 301 300 299 297 297
258 257 257 260 265 270 273 284 278 251 243 251 254 252 243 238 241 238 233 229 220 210 211 221 230 238 241 242 242 240 236 235 238 242 247 253 257 258 259 259 262 253 239 246 258 263 267 270 271 274 278 284 292 295 295 296 297 298 300 301 302 302 303 305 305 305 304 304 303 303 303 303 304 305 305 304 303 302 302 302 301 300 298 296 295
257 254 257 258 261 268 272 282 282 251 241 258 267 261 245 233 234 236 232 222 212 206 208 218 229 236 239 239 238 235 233 235 238 242 245 249 253 255 256 257 250 235 236 251 257 259 263 265 269 274 279 285 290 293 294 296 298 298 299 300 302 303 305 306 307 308 308 307 306 305 304 304 304 305 305 304 303 302 301 301 301 300 298 296 295
256 254 254 258 260 267 274 278 272 260 263 273 276 264 245 232 230 235 235 222 210 202 203 213 225 231 235 235 235 232 232 236 238 241 243 247 252 253 254 252 240 231 241 252 252 253 257 263 270 274 279 286 289 291 293 294 295 296 297 299 301 302 303 304 304 305 306 308 309 310 310 308 307 305 304 302 301 301 300 299 299 298 296 295 294
252 252 252 257 263 268 274 273 266 265 268 273 273 261 243 231 226 232 231 219 208 196 194 207 218 226 232 234 235 236 237 241 242 244 245 248 251 251 250 246 236 236 246 248 247 252 259 266 272 277 284 289 291 293 294 294 294 295 296 298 299 300 301 301 301 300 300 301 303 307 309 310 310 308 306 305 304 302 301 299 298 296 295 295 294
246 247 252 259 268 270 270 270 267 265 265 270 269 254 242 231 224 226 221 211 203 192 192 204 215 225 231 235 238 239 241 244 246 247 247 248 249 249 246 240 236 240 245 245 250 257 264 270 275 281 287 290 292 294 295 295 295 296 297 298 299 301 301 301 299 298 297 294 294 297 300 303 306 306 305 305 305 304 303 302 299 298 296 295 294
239 246 254 259 266 269 271 272 273 270 267 267 261 246 239 229 221 220 212 205 200 194 197 206 216 226 233 237 239 239 240 243 246 248 248 248 248 245 241 236 236 239 242 246 254 261 266 272 278 282 286 290 293 294 295 295 296 298 299 300 301 303 302 301 300 299 298 297 295 294 294 294 295 295 295 295 296 296 298 298 298 298 297 296 294
238 248 253 254 261 267 270 269 273 278 268 257 250 239 226 215 212 210 204 202 201 200 204 209 216 227 233 238 239 239 242 244 247 250 250 249 246 241 237 235 236 239 242 248 255 262 269 273 277 281 286 290 292 293 294 295 297 298 299 300 302 303 303 302 302 301 301 300 300 299 297 295 294 293 292 291 291 291 292 293 294 295 295 295 294
Height
5886 5887 5887 5886 5885 5884 5882 5882 5880 5879 5878 5878 5877 5876 5876 5874 5874 5874 5874 5874 5873 5872 5872 5871 5870 5870 5870 5869 5868 5868 5867 5866 5866 5865 5864 5863 5862 5861 5860 5859 5858 5857 5856 5855 5854 5854 5852 5852 5850 5850 5849 5848 5848 5848 5847 5846 5846 5845 5844 5844 5843 5842 5842 5842 5841 5840 5840 5840 5839 5838 5838 5838 5838 5838 5837 5836 5836 5836 5836 5835 5834 5834 5834 5834 5833
5887 5886 5886 5886 5885 5884 5882 5881 5880 5879 5878 5878 5877 5876 5876 5875 5874 5874 5874 5873 5873 5872 5872 5871 5870 5870 5870 5869 5868 5868 5867 5866 5866 5865 5864 5863 5862 5860 5860 5858 5858 5856 5856 5855 5854 5854 5853 5852 5851 5850 5850 5849 5848 5848 5847 5846 5846 5845 5844 5844 5843 5842 5842 5842 5841 5840 5840 5840 5839 5838 5838 5838 5838 5837 5836 5836 5836 5836 5835 5834 5834 5834 5833 5832 5832
5886 5886 5885 5885 5884 5884 5882 5881 5880 5879 5878 5878 5877 5876 5876 5876 5875 5874 5874 5873 5872 5872 5872 5871 5870 5870 5870 5869 5868 5868 5868 5866 5866 5866 5864 5863 5862 5860 5860 5858 5858 5856 5856 5855 5854 5854 5853 5852 5852 5850 5850 5850 5848 5848 5848 5846 5846 5846 5845 5844 5844 5843 5842 5842 5841 5840 5840 5839 5838 5838 5838 5837 5837 5836 5836 5836 5835 5834 5834 5834 5833 5832 5832 5832 5832
5885 5885 5884 5884 5884 5882 5882 5881 5880 5880 5878 5878 5877 5876 5876 5876 5875 5874 5874 5873 5872 5872 5872 5870 5870 5870 5870 5869 5869 5868 5868 5867 5866 5866 5864 5863 5862 5860 5860 5858 5858 5856 5856 5855 5854 5854 5854 5852 5852 5851 5850 5850 5849 5848 5848 5847 5846 5846 5845 5844 5844 5844 5842 5842 5841 5840 5840 5839 5838 5838 5837 5836 5836 5836 5835 5834 5834 5834 5834 5832 5832 5832 5832 5831 5831
5884 5884 5884 5883 5882 5882 5881 5880 5880 5880 5878 5878 5877 5876 5876 5876 5875 5874 5874 5873 5872 5872 5871 5871 5870 5870 5870 5869 5869 5868 5868 5867 5866 5866 5864 5863 5862 5860 5860 5858 5858 5856 5856 5856 5855 5854 5854 5853 5852 5852 5850 5850 5849 5848 5848 5847 5846 5846 5846 5844 5844 5844 5842 5842 5841 5840 5840 5838 5838 5838 5836 5836 5836 5835 5834 5834 5834 5833 5832 5832 5832 5831 5830 5830 5830
5883 5883 5882 5882 5882 5881 5880 5880 5880 5879 5878 5878 5877 5876 5876 5875 5874 5874 5874 5873 5872 5872 5871 5870 5870 5870 5869 5869 5869 5868 5868 5867 5866 5865 5864 5863 5862 5860 5860 5858 5858 5856 5856 5856 5856 5855 5854 5854 5852 5852 5851 5850 5850 5848 5848 5848 5846 5846 5846 5844 5844 5843 5842 5842 5840 5840 5839 5838 5838 5837 5836 5836 5835 5834 5834 5834 5832 5832 5832 5831 5830 5830 5830 5829 5829
5882 5882 5882 5882 5882 5880 5880 5880 5879 5878 5878 5878 5877 5876 5876 5874 5874 5874 5874 5873 5872 5872 5871 5870 5870 5870 5869 5868 5868 5868 5868 5867 5866 5865 5864 5862 5862 5860 5860 5858 5858 5856 5856 5856 5855 5855 5854 5854 5853 5852 5851 5850 5850 5849 5848 5848 5847 5846 5846 5844 5844 5843 5842 5842 5840 5840 5838 5838 5837 5836 5836 5836 5834 5834 5834 5833 5832 5832 5831 5830 5830 5829 5828 5828 5828
5881 5881 5882 5882 5881 5880 5880 5879 5878 5878 5878 5878 5877 5876 5875 5874 5874 5874 5873 5872 5872 5872 5870 5870 5870 5869 5868 5868 5868 5868 5868 5866 5866 5864 5864 5862 5862 5860 5860 5858 5858 5857 5856 5856 5855 5854 5854 5854 5853 5852 5852 5850 5850 5849 5848 5848 5847 5846 5846 5844 5844 5843 5842 5842 5840 5840 5838 5838 5837 5836 5836 5836 5834 5834 5833 5832 5832 5831 5830 5830 5829 5828 5828 5828 5828
5880 5881 5881 5881 5881 5880 5880 5879 5878 5878 5878 5877 5876 5876 5874 5874 5874 5873 5873 5872 5872 5872 5870 5870 5868 5868 5868 5868 5868 5868 5867 5866 5865 5864 5863 5862 5861 5860 5860 5858 5858 5857 5856 5856 5855 5854 5854 5854 5853 5852 5852 5850 5850 5850 5848 5848 5848 5846 5846 5845 5844 5844 5842 5842 5840 5840 5838 5838 5837 5836 5836 5835 5834 5834 5833 5832 5832 5830 5830 5830 5828 5828 5828 5827 5826
5880 5880 5880 5880 5880 5880 5879 5878 5878 5878 5877 5876 5876 5875 5874 5874 5873 5872 5872 5872 5872 5871 5870 5869 5868 5868 5868 5867 5867 5866 5866 5866 5864 5864 5862 5862 5860 5860 5859 5858 5858 5857 5856 5856 5855 5854 5854 5854 5853 5852 5852 5850 5850 5850 5848 5848 5848 5846 5846 5845 5844 5844 5842 5842 5840 5840 5838 5838 5837 5836 5836 5835 5834 5834 5833 5832 5832 5830 5830 5829 5828 5828 5828 5827 5826
5879 5879 5880 5879 5879 5878 5878 5878 5877 5876 5876 5876 5875 5874 5874 5873 5872 5872 5872 5871 5870 5870 5869 5868 5867 5866 5866 5866 5866 5866 5866 5865 5864 5864 5862 5861 5860 5860 5859 5858 5858 5857 5856 5856 5855 5854 5854 5854 5853 5852 5851 5850 5850 5849 5848 5848 5848 5846 5846 5845 5844 5844 5842 5842 5840 5840 5838 5838 5837 5836 5836 5835 5834 5834 5833 5832 5831 5830 5830 5829 5828 5828 5827 5826 5826
5878 5878 5878 5878 5878 5877 5876 5876 5876 5876 5875 5874 5874 5874 5873 5872 5872 5870 5870 5870 5870 5869 5868 5868 5866 5866 5866 5866 5866 5866 5865 5864 5864 5864 5862 5861 5860 5860 5859 5858 5858 5857 5856 5856 5855 5854 5854 5854 5853 5852 5851 5850 5850 5849 5848 5847 5847 5846 5846 5845 5844 5844 5842 5842 5840 5840 5838 5838 5837 5836 5836 5835 5834 5834 5832 5832 5830 5830 5829 5828 5828 5827 5826 5826 5826
5877 5877 5877 5876 5876 5876 5876 5875 5874 5874 5874 5873 5872 5872 5872 5871 5870 5870 5869 5868 5868 5868 5867 5866 5866 5865 5866 5865 5865 5865 5864 5864 5864 5863 5862 5861 5860 5860 5859 5858 5858 5857 5856 5856 5855 5854 5854 5854 5852 5852 5852 5850 5850 5849 5848 5847 5846 5846 5845 5845 5844 5843 5842 5841 5840 5840 5838 5838 5838 5836 5836 5835 5834 5833 5832 5832 5830 5830 5828 5828 5827 5826 5826 5825 5824
5876 5876 5876 5876 5875 5875 5874 5874 5874 5873 5872 5872 5872 5871 5870 5870 5869 5868 5868 5868 5867 5866 5866 5865 5864 5864 5864 5864 5865 5864 5864 5864 5864 5862 5862 5861 5860 5860 5858 5858 5858 5856 5856 5855 5854 5854 5854 5853 5852 5852 5852 5850 5850 5849 5848 5847 5846 5844 5844 5844 5844 5844 5842 5840 5840 5840 5838 5838 5838 5836 5836 5834 5834 5833 5832 5832 5830 5830 5828 5828 5826 5826 5825 5824 5824
5874 5874 5874 5874 5874 5874 5874 5872 5872 5872 5871 5870 5870 5870 5869 5868 5867 5866 5866 5866 5866 5866 5864 5864 5864 5864 5864 5864 5864 5864 5864 5864 5863 5862 5862 5860 5860 5860 5858 5858 5857 5856 5856 5855 5854 5854 5853 5852 5852 5852 5851 5850 5850 5849 5848 5847 5846 5844 5843 5843 5844 5843 5842 5841 5840 5840 5838 5838 5837 5836 5836 5834 5834 5833 5832 5832 5830 5830 5828 5828 5826 5826 5824 5824 5823
5873 5873 5872 5872 5872 5872 5872 5871 5870 5870 5870 5869 5868 5868 5868 5866 5866 5865 5865 5865 5864 5864 5864 5863 5862 5863 5864 5864 5864 5864 5863 5863 5862 5862 5861 5860 5860 5859 5858 5858 5858 5856 5856 5855 5854 5853 5852 5852 5852 5851 5850 5850 5850 5849 5848 5848 5846 5845 5844 5842 5842 5842 5842 5841 5840 5839 5838 5838 5836 5836 5835 5834 5834 5832 5832 5831 5830 5830 5828 5828 5826 5825 5824 5824 5822
5872 5871 5870 5870 5870 5870 5870 5870 5869 5868 5868 5868 5867 5866 5866 5864 5864 5864 5864 5864 5863 5862 5862 5862 5862 5862 5863 5863 5863 5863 5862 5862 5862 5862 5861 5860 5860 5859 5858 5858 5858 5856 5856 5855 5854 5853 5852 5852 5850 5850 5850 5850 5850 5849 5848 5848 5846 5846 5844 5842 5842 5841 5841 5840 5840 5839 5838 5837 5836 5836 5834 5834 5833 5832 5832 5830 5830 5829 5828 5827 5826 5825 5824 5822 5822
5870 5869 5869 5868 5868 5868 5868 5868 5867 5866 5866 5866 5866 5865 5864 5863 5862 5862 5862 5862 5862 5862 5862 5861 5861 5862 5862 5862 5862 5862 5862 5862 5862 5861 5860 5860 5859 5858 5858 5858 5858 5856 5856 5855 5854 5853 5852 5851 5850 5850 5849 5849 5849 5848 5848 5848 5846 5846 5844 5843 5842 5840 5840 5840 5840 5839 5838 5837 5836 5835 5834 5834 5833 5832 5832 5830 5830 5828 5828 5826 5826 5824 5823 5822 5821
5868 5868 5867 5866 5866 5866 5866 5866 5865 5864 5864 5864 5864 5863 5862 5862 5861 5860 5861 5861 5860 5860 5860 5860 5860 5860 5860 5861 5862 5862 5862 5862 5861 5860 5860 5859 5858 5858 5858 5857 5857 5856 5856 5855 5854 5853 5852 5851 5850 5850 5849 5848 5848 5848 5848 5847 5846 5845 5844 5844 5842 5840 5839 5839 5839 5838 5838 5837 5836 5835 5834 5834 5832 5832 5831 5830 5829 5828 5826 5826 5824 5824 5822 5822 5820
5865 5866 5865 5864 5864 5864 5864 5864 5863 5862 5862 5862 5862 5861 5860 5860 5859 5859 5860 5860 5860 5859 5859 5858 5858 5859 5860 5860 5860 5860 5861 5860 5860 5860 5858 5858 5858 5857 5857 5856 5856 5856 5856 5855 5854 5854 5852 5852 5850 5850 5848 5848 5848 5847 5847 5846 5846 5845 5844 5844 5842 5840 5839 5838 5838 5838 5837 5836 5836 5834 5834 5833 5832 5832 5830 5830 5828 5827 5826 5825 5824 5823 5822 5821 5820
5863 5863 5862 5862 5862 5862 5862 5861 5860 5860 5860 5860 5860 5858 5858 5858 5858 5858 5858 5858 5858 5858 5858 5857 5857 5858 5858 5859 5860 5860 5860 5860 5859 5858 5858 5857 5856 5856 5856 5856 5856 5855 5855 5855 5854 5854 5852 5852 5850 5850 5848 5848 5848 5846 5846 5846 5846 5845 5844 5843 5842 5841 5839 5838 5838 5838 5836 5836 5835 5834 5833 5832 5832 5830 5830 5828 5828 5826 5825 5824 5823 5822 5822 5820 5819
5860 5860 5860 5860 5860 5860 5860 5860 5859 5858 5858 5858 5857 5856 5856 5856 5856 5856 5857 5857 5856 5856 5856 5856 5856 5856 5857 5858 5859 5859 5858 5858 5858 5857 5856 5856 5855 5855 5855 5855 5854 5854 5854 5854 5854 5853 5852 5851 5850 5850 5848 5848 5847 5846 5846 5846 5845 5844 5844 5843 5842 5841 5840 5838 5837 5836 5836 5835 5834 5833 5832 5831 5830 5828 5828 5826 5826 5824 5824 5822 5822 5822 5820 5820 5818
5858 5858 5858 5858 5858 5858 5858 5858 5857 5856 5856 5856 5856 5855 5854 5854 5855 5856 5856 5855 5855 5855 5854 5854 5854 5855 5856 5858 5858 5858 5858 5857 5856 5856 5856 5856 5855 5854 5854 5854 5854 5854 5854 5854 5853 5852 5852 5850 5850 5850 5848 5848 5847 5846 5846 5845 5844 5844 5843 5842 5842 5841 5840 5838 5837 5836 5834 5834 5833 5832 5830 5829 5828 5827 5826 5824 5823 5822 5822 5821 5820 5820 5820 5819 5818
5855 5855 5856 5855 5856 5856 5856 5856 5856 5855 5854 5854 5854 5854 5853 5853 5854 5854 5854 5853 5853 5853 5853 5852 5852 5854 5855 5856 5856 5856 5856 5856 5856 5856 5856 5855 5854 5854 5854 5853 5853 5852 5852 5852 5852 5852 5851 5850 5850 5849 5848 5847 5846 5846 5845 5844 5844 5843 5842 5842 5841 5840 5840 5838 5837 5836 5834 5833 5832 5830 5830 5828 5826 5825 5824 5822 5822 5820 5820 5820 5819 5818 5818 5818 5816
5853 5852 5853 5853 5853 5854 5854 5854 5854 5853 5852 5852 5852 5852 5852 5852 5852 5852 5852 5851 5852 5852 5851 5851 5852 5853 5854 5854 5854 5854 5854 5854 5854 5855 5855 5855 5854 5854 5854 5852 5852 5852 5851 5851 5851 5850 5850 5849 5848 5848 5848 5847 5846 5846 5845 5844 5844 5842 5842 5841 5840 5840 5839 5838 5836 5836 5834 5833 5832 5830 5828 5827 5826 5824 5823 5822 5820 5819 5818 5818 5818 5818 5816 5816 5815
5850 5850 5850 5850 5851 5851 5852 5852 5852 5851 5851 5850 5850 5850 5849 5849 5849 5849 5849 5849 5849 5850 5849 5850 5850 5852 5852 5853 5853 5854 5854 5854 5854 5854 5854 5854 5854 5853 5852 5852 5851 5850 5850 5850 5850 5849 5848 5848 5848 5848 5847 5846 5846 5845 5844 5844 5842 5842 5841 5840 5840 5838 5838 5837 5836 5834 5834 5832 5831 5830 5828 5827 5826 5824 5822 5821 5820 5819 5818 5818 5818 5816 5816 5814 5814
5848 5848 5848 5848 5848 5848 5849 5850 5850 5850 5849 5849 5848 5848 5848 5847 5846 5846 5846 5847 5848 5848 5848 5848 5850 5850 5851 5852 5852 5852 5852 5852 5853 5853 5853 5853 5853 5852 5852 5852 5850 5850 5850 5849 5848 5848 5848 5847 5846 5846 5846 5846 5845 5844 5844 5842 5842 5841 5840 5840 5839 5838 5838 5836 5836 5834 5833 5832 5831 5830 5828 5827 5826 5824 5822 5821 5820 5819 5819 5818 5817 5816 5814 5814 5812
5846 5846 5846 5846 5845 5846 5846 5848 5848 5848 5848 5848 5847 5846 5846 5845 5844 5844 5845 5845 5846 5846 5846 5846 5848 5848 5850 5850 5850 5851 5852 5852 5852 5852 5852 5852 5852 5852 5851 5850 5850 5849 5848 5848 5848 5847 5846 5846 5846 5845 5845 5844 5844 5844 5842 5842 5840 5840 5840 5838 5838 5838 5836 5836 5836 5834 5833 5832 5830 5830 5828 5826 5825 5824 5822 5821 5820 5819 5819 5818 5816 5816 5814 5813 5812
5843 5842 5842 5842 5842 5844 5845 5846 5846 5846 5846 5845 5845 5844 5844 5844 5843 5843 5843 5844 5844 5844 5844 5845 5846 5847 5848 5848 5850 5850 5850 5850 5850 5850 5850 5850 5850 5850 5850 5850 5849 5848 5848 5847 5846 5846 5846 5845 5844 5844 5844 5843 5842 5842 5842 5840 5840 5839 5838 5838 5837 5836 5836 5836 5835 5834 5833 5832 5830 5829 5828 5826 5824 5823 5822 5820 5820 5818 5818 5818 5816 5816 5815 5814 5812
5840 5840 5840 5840 5841 5842 5843 5844 5844 5843 5843 5842 5842 5842 5842 5842 5841 5841 5842 5842 5842 5842 5842 5843 5844 5846 5846 5847 5848 5848 5848 5848 5848 5849 5849 5849 5849 5849 5848 5848 5848 5847 5846 5846 5846 5845 5844 5844 5843 5842 5842 5842 5841 5840 5840 5840 5839 5838 5838 5837 5836 5836 5836 5834 5834 5833 5832 5831 5830 5828 5827 5826 5824 5822 5821 5820 5818 5818 5818 5817 5816 5816 5816 5814 5812
5837 5837 5838 5838 5838 5840 5840 5842 5842 5841 5840 5840 5839 5839 5839 5839 5838 5839 5839 5840 5840 5840 5841 5842 5842 5844 5844 5846 5846 5847 5847 5847 5847 5848 5848 5848 5848 5848 5848 5847 5846 5846 5846 5845 5844 5844 5844 5842 5842 5842 5841 5840 5840 5839 5839 5838 5838 5837 5836 5836 5836 5835 5834 5834 5832 5832 5832 5830 5829 5828 5826 5824 5823 5822 5820 5819 5818 5817 5817 5816 5815 5815 5814 5814 5812
5834 5834 5835 5836 5836 5836 5838 5840 5839 5838 5838 5837 5836 5836 5837 5836 5836 5836 5837 5838 5838 5838 5839 5840 5841 5842 5842 5844 5844 5845 5846 5846 5846 5846 5846 5846 5846 5846 5846 5846 5845 5844 5844 5844 5844 5843 5842 5842 5841 5840 5840 5840 5838 5838 5837 5836 5836 5836 5835 5834 5834 5834 5832 5832 5832 5831 5830 5829 5828 5826 5825 5824 5822 5821 5820 5818 5818 5816 5816 5815 5814 5814 5814 5812 5811
5831 5832 5832 5832 5832 5834 5835 5836 5836 5836 5835 5834 5834 5835 5835 5834 5834 5834 5836 5837 5837 5837 5837 5838 5840 5840 5841 5842 5842 5843 5844 5844 5844 5844 5844 5844 5844 5844 5844 5844 5843 5843 5842 5842 5842 5842 5842 5841 5840 5840 5838 5838 5837 5836 5836 5835 5834 5834 5834 5833 5832 5832 5832 5831 5830 5830 5829 5828 5828 5826 5824 5822 5821 5820 5819 5818 5816 5816 5815 5814 5813 5812 5812 5811 5810
5828 5830 5830 5829 5829 5830 5832 5834 5834 5833 5832 5832 5832 5832 5832 5832 5832 5833 5834 5835 5835 5835 5836 5837 5838 5838 5839 5840 5840 5842 5842 5842 5842 5842 5842 5842 5842 5842 5842 5842 5842 5842 5842 5842 5841 5841 5840 5840 5839 5838 5837 5836 5836 5835 5834 5834 5834 5833 5832 5832 5832 5831 5831 5830 5830 5829 5828 5828 5826 5825 5824 5822 5820 5819 5818 5817 5816 5815 5814 5813 5812 5812 5810 5810 5808
5826 5827 5827 5826 5826 5828 5829 5830 5830 5829 5829 5828 5829 5830 5830 5830 5830 5832 5832 5833 5834 5834 5834 5835 5836 5836 5837 5837 5838 5840 5840 5840 5841 5841 5841 5842 5841 5840 5840 5840 5840 5840 5840 5840 5840 5839 5838 5838 5838 5837 5836 5836 5835 5834 5834 5833 5833 5832 5832 5832 5830 5830 5830 5830 5829 5828 5828 5827 5826 5824 5822 5820 5819 5818 5816 5816 5815 5814 5813 5812 5812 5810 5810 5808 5807
5824 5824 5824 5824 5824 5825 5826 5827 5826 5825 5825 5825 5826 5827 5828 5828 5829 5830 5831 5832 5832 5832 5833 5833 5834 5834 5834 5835 5836 5837 5838 5839 5839 5839 5840 5840 5839 5838 5838 5838 5838 5838 5838 5838 5837 5837 5836 5836 5836 5836 5836 5834 5834 5833 5832 5832 5832 5831 5830 5830 5830 5830 5829 5828 5828 5828 5826 5826 5824 5823 5822 5820 5818 5816 5815 5814 5813 5812 5811 5810 5810 5809 5808 5808 5806
5821 5821 5821 5822 5822 5822 5823 5822 5822 5820 5820 5821 5822 5824 5824 5826 5827 5828 5829 5830 5830 5831 5832 5832 5832 5832 5832 5833 5834 5835 5836 5836 5837 5838 5838 5838 5838 5836 5836 5836 5836 5836 5836 5836 5836 5836 5836 5836 5836 5835 5834 5833 5832 5832 5831 5831 5830 5830 5829 5828 5828 5828 5828 5828 5826 5826 5825 5824 5823 5822 5820 5818 5817 5815 5814 5812 5811 5810 5809 5808 5808 5807 5806 5806 5804
5818 5818 5818 5818 5818 5818 5818 5818 5816 5816 5816 5817 5818 5820 5822 5823 5824 5826 5827 5828 5829 5830 5830 5830 5830 5830 5830 5831 5832 5833 5834 5834 5836 5836 5837 5837 5836 5836 5835 5835 5835 5834 5834 5834 5834 5834 5834 5834 5834 5834 5833 5832 5830 5830 5830 5830 5829 5828 5828 5828 5827 5827 5826 5826 5825 5824 5824 5822 5822 5820 5819 5817 5816 5814 5812 5810 5809 5808 5807 5806 5805 5804 5804 5804 5802
5814 5814 5814 5815 5815 5814 5814 5812 5812 5811 5812 5813 5816 5817 5819 5820 5822 5824 5825 5826 5827 5828 5828 5828 5829 5829 5830 5830 5830 5831 5832 5832 5834 5834 5836 5836 5834 5834 5834 5833 5833 5832 5832 5832 5832 5832 5833 5833 5833 5832 5832 5830 5830 5830 5828 5828 5828 5827 5826 5826 5826 5826 5825 5824 5823 5822 5822 5821 5820 5819 5818 5816 5814 5812 5810 5809 5808 5806 5804 5804 5802 5802 5801 5800 5800
5812 5811 5811 5811 5811 5810 5809 5808 5806 5806 5807 5810 5812 5814 5816 5818 5820 5821 5822 5824 5824 5826 5826 5827 5828 5828 5828 5828 5828 5829 5830 5830 5831 5832 5834 5834 5833 5832 5832 5832 5830 5830 5830 5830 5830 5831 5832 5832 5832 5832 5830 5830 5829 5828 5828 5827 5826 5826 5826 5825 5824 5824 5824 5822 5822 5821 5820 5820 5818 5817 5816 5814 5812 5810 5809 5808 5806 5804 5802 5802 5800 5800 5798 5798 5797
5808 5808 5807 5807 5808 5808 5807 5806 5804 5803 5804 5807 5810 5811 5813 5816 5817 5818 5819 5820 5822 5823 5824 5826 5826 5826 5826 5826 5827 5828 5828 5828 5829 5830 5832 5832 5831 5830 5830 5829 5829 5828 5828 5828 5828 5829 5830 5830 5830 5830 5830 5828 5828 5826 5826 5826 5825 5825 5824 5824 5823 5822 5822 5821 5820 5820 5818 5818 5816 5816 5814 5812 5810 5809 5808 5806 5804 5802 5800 5799 5798 5798 5796 5796 5794
5806 5804 5804 5803 5804 5806 5806 5806 5804 5804 5804 5806 5808 5810 5810 5812 5814 5816 5816 5818 5819 5820 5822 5824 5825 5825 5825 5825 5826 5826 5826 5826 5828 5828 5829 5830 5829 5828 5828 5828 5828 5828 5827 5827 5826 5828 5828 5828 5828 5828 5828 5827 5826 5825 5824 5824 5824 5824 5823 5822 5822 5820 5820 5820 5819 5818 5816 5816 5815 5814 5812 5810 5809 5807 5805 5803 5802 5800 5798 5796 5796 5795 5794 5793 5792
5803 5802 5801 5800 5801 5802 5802 5802 5804 5803 5804 5806 5808 5810 5810 5811 5812 5814 5814 5814 5816 5818 5820 5822 5823 5823 5824 5824 5824 5825 5825 5825 5826 5826 5826 5826 5827 5826 5826 5826 5826 5826 5826 5826 5826 5826 5826 5826 5826 5826 5826 5825 5824 5823 5822 5822 5822 5822 5822 5820 5820 5820 5818 5818 5818 5816 5815 5814 5814 5812 5810 5809 5807 5805 5804 5801 5799 5798 5796 5794 5794 5792 5791 5790 5788
5800 5800 5799 5798 5799 5800 5799 5800 5800 5801 5803 5805 5806 5808 5809 5810 5811 5811 5811 5812 5814 5816 5818 5820 5820 5821 5822 5823 5823 5824 5824 5824 5824 5824 5824 5824 5825 5825 5825 5824 5824 5825 5826 5826 5826 5826 5826 5826 5825 5824 5824 5822 5822 5822 5821 5821 5820 5820 5820 5819 5818 5818 5817 5816 5815 5814 5813 5812 5811 5810 5808 5806 5804 5802 5801 5799 5798 5796 5794 5792 5791 5790 5788 5786 5785
5798 5798 5796 5796 5797 5797 5798 5798 5798 5799 5802 5804 5804 5805 5806 5807 5808 5808 5809 5810 5812 5814 5815 5816 5818 5819 5820 5822 5822 5822 5822 5822 5822 5822 5822 5822 5823 5823 5823 5823 5823 5823 5824 5824 5824 5824 5824 5824 5824 5823 5822 5821 5820 5820 5820 5819 5818 5818 5818 5817 5816 5816 5815 5814 5812 5810 5810 5809 5808 5808 5806 5804 5802 5800 5798 5796 5794 5792 5790 5789 5788 5786 5785 5784 5782
5794 5794 5794 5794 5794 5795 5796 5796 5796 5798 5799 5801 5802 5802 5802 5803 5805 5806 5807 5808 5810 5810 5812 5814 5816 5818 5820 5820 5820 5820 5820 5820 5820 5820 5820 5820 5820 5821 5821 5822 5821 5821 5822 5822 5822 5823 5823 5823 5822 5822 5820 5820 5819 5818 5818 5818 5816 5816 5816 5816 5815 5814 5814 5812 5811 5808 5806 5806 5805 5805 5804 5802 5800 5798 5796 5794 5792 5790 5788 5786 5784 5782 5781 5780 5778
5791 5792 5792 5792 5793 5794 5794 5795 5796 5796 5797 5798 5798 5798 5798 5799 5802 5804 5804 5806 5806 5808 5810 5812 5815 5817 5818 5819 5818 5818 5818 5818 5818 5818 5818 5818 5818 5819 5820 5820 5820 5820 5820 5820 5820 5821 5822 5821 5820 5820 5818 5818 5817 5816 5816 5816 5815 5814 5814 5814 5813 5812 5812 5811 5810 5808 5806 5804 5800 5800 5800 5798 5797 5795 5792 5790 5789 5787 5785 5783 5782 5780 5778 5776 5776
5788 5790 5790 5790 5791 5792 5792 5793 5793 5794 5794 5794 5794 5794 5794 5796 5798 5800 5802 5804 5805 5806 5808 5812 5814 5816 5816 5816 5816 5816 5816 5816 5815 5815 5816 5816 5817 5818 5818 5818 5818 5818 5818 5818 5818 5818 5819 5818 5818 5818 5817 5816 5815 5814 5814 5814 5814 5812 5812 5812 5811 5810 5810 5809 5808 5807 5806 5804 5802 5798 5796 5794 5791 5789 5787 5786 5784 5782 5781 5780 5778 5776 5774 5773 5772
5786 5787 5788 5788 5789 5790 5790 5790 5790 5790 5791 5792 5792 5792 5793 5794 5796 5798 5800 5802 5804 5804 5806 5809 5812 5813 5814 5814 5814 5814 5814 5813 5812 5813 5814 5814 5815 5816 5816 5816 5816 5816 5815 5816 5816 5816 5816 5816 5816 5816 5815 5814 5814 5813 5812 5812 5811 5810 5810 5809 5808 5808 5807 5806 5806 5804 5803 5802 5802 5799 5796 5793 5790 5786 5782 5781 5779 5776 5775 5774 5773 5772 5770 5769 5768
5784 5784 5785 5786 5787 5788 5788 5788 5788 5788 5788 5788 5790 5790 5791 5792 5794 5796 5798 5800 5802 5803 5804 5807 5809 5810 5810 5810 5810 5811 5810 5810 5810 5811 5812 5812 5813 5814 5814 5814 5814 5813 5812 5812 5813 5814 5814 5814 5814 5814 5814 5813 5812 5811 5810 5810 5808 5808 5807 5806 5806 5805 5804 5803 5802 5801 5800 5799 5798 5797 5795 5793 5790 5786 5783 5780 5778 5776 5773 5770 5768 5767 5766 5764 5762
5782 5782 5783 5784 5784 5786 5786 5786 5786 5786 5785 5786 5787 5788 5789 5790 5792 5794 5796 5798 5800 5801 5802 5804 5806 5808 5808 5808 5808 5808 5808 5808 5808 5810 5810 5810 5811 5812 5812 5812 5812 5811 5810 5810 5811 5812 5812 5812 5812 5812 5812 5811 5810 5810 5808 5808 5806 5805 5804 5804 5803 5802 5801 5800 5798 5798 5796 5795 5794 5794 5792 5790 5788 5785 5782 5779 5776 5774 5772 5769 5766 5764 5762 5760 5758